Weather History for KEGV - October, 2011

Change the Weather History Date:

Friday, October 14, 2011

  Actual Average Record
Temperature  
Mean Temperature 44 °F -  
Max Temperature 47 °F 52 °F 66 °F (2000)
Min Temperature 41 °F 33 °F 22 °F (1993)
Degree Days  
Heating Degree Days 21    
Moisture  
Dew Point 43 °F    
Average Humidity 93    
Maximum Humidity 100    
Minimum Humidity 73    
Precipitation  
Precipitation 0.01 in - - ()
Sea Level Pressure  
Sea Level Pressure 29.44 in    
Wind  
Wind Speed 12 mph (WNW)    
Max Wind Speed 24 mph    
Max Gust Speed 36 mph    
Visibility 9 miles    
Events Rain    
Averages and records for this station are not official NWS values.
T = Trace of Precipitation, MM = Missing Value Source: NWS Daily Summary

Daily Weather History Graph

Daily Weather History Graph

Search for Another Location

Airport or City:

Trip Planner

Search our weather history database for the weather conditions in past years. The results will help you decide how hot, cold, wet, or windy it might be!

Date:

Astronomy

Oct. 14, 2011 Rise Set
Actual Time 7:12 AM CDT 6:13 PM CDT
Civil Twilight 6:42 AM CDT 6:43 PM CDT
Nautical Twilight 6:07 AM CDT 7:17 PM CDT
Astronomical Twilight 5:32 AM CDT 7:52 PM CDT
Moon 7:14 PM CDT (10/14) 9:52 AM CDT (10/14)
Length of Visible Light 12h 01m
Length of Day
11h 01m
Waning Gibbous, 94% of the Moon is Illuminated
Oct 14
Waning Gibbous
Oct 19
Last Quarter
Oct 26
New
Nov 2
First Quarter
Nov 10
Full

Hourly Weather History & Observations

Time (CDT) Temp. Windchill Dew Point Humidity Pressure Visibility Wind Dir Wind Speed Gust Speed Precip Events Conditions
12:35 AM 47.5 °F - 47.1 °F 99% 29.44 in 10.0 mi WNW 12.7 mph 18.4 mph N/A   Overcast
12:55 AM 47.3 °F - 46.8 °F 98% 29.44 in 10.0 mi WNW 8.1 mph 16.1 mph N/A   Overcast
1:15 AM 47.3 °F - 46.6 °F 97% 29.44 in 10.0 mi WNW 10.4 mph 16.1 mph N/A   Overcast
1:35 AM 46.8 °F - 46.4 °F 99% 29.44 in 10.0 mi WNW 9.2 mph 16.1 mph N/A   Overcast
1:55 AM 46.6 °F - 46.0 °F 98% 29.43 in 10.0 mi WNW 10.4 mph - N/A   Overcast
2:15 AM 46.4 °F 41.5 °F 45.9 °F 98% 29.43 in 10.0 mi WNW 10.4 mph - N/A   Overcast
2:35 AM 46.4 °F 41.9 °F 45.7 °F 97% 29.43 in 10.0 mi WNW 9.2 mph 16.1 mph N/A   Overcast
2:55 AM 46.2 °F 41.7 °F 45.5 °F 97% 29.43 in 10.0 mi WNW 9.2 mph - N/A   Overcast
3:15 AM 45.9 °F 41.2 °F 45.1 °F 97% 29.42 in 10.0 mi WNW 9.2 mph 17.3 mph N/A   Overcast
3:35 AM 45.7 °F 39.8 °F 44.8 °F 97% 29.42 in 10.0 mi WNW 12.7 mph 17.3 mph N/A   Overcast
3:55 AM 45.5 °F 40.3 °F 44.4 °F 96% 29.42 in 10.0 mi WNW 10.4 mph - N/A   Overcast
4:15 AM 45.5 °F 40.8 °F 44.1 °F 95% 29.42 in 10.0 mi WNW 9.2 mph - N/A   Overcast
4:35 AM 45.1 °F 39.9 °F 44.2 °F 97% 29.42 in 10.0 mi WNW 10.4 mph - N/A   Overcast
4:55 AM 44.8 °F 41.0 °F 44.6 °F 99% 29.42 in 10.0 mi WNW 6.9 mph - N/A   Overcast
5:15 AM 45.0 °F 40.1 °F 44.2 °F 97% 29.42 in 10.0 mi WNW 9.2 mph - N/A   Overcast
5:35 AM 45.0 °F 40.1 °F 43.9 °F 96% 29.42 in 10.0 mi WNW 9.2 mph 18.4 mph N/A   Overcast
5:55 AM 45.0 °F 39.3 °F 43.7 °F 95% 29.41 in 10.0 mi NW 11.5 mph - N/A   Overcast
6:15 AM 44.8 °F 39.0 °F 43.7 °F 96% 29.41 in 10.0 mi NW 11.5 mph - N/A   Overcast
6:35 AM 44.6 °F 38.4 °F 43.7 °F 97% 29.41 in 7.0 mi WNW 12.7 mph 19.6 mph N/A   Overcast
6:55 AM 44.1 °F 39.0 °F 43.7 °F 99% 29.41 in 5.0 mi WNW 9.2 mph - N/A   Overcast
7:15 AM 43.9 °F 38.8 °F 43.9 °F 100% 29.41 in 7.0 mi WNW 9.2 mph 17.3 mph N/A   Overcast
7:35 AM 44.1 °F 39.5 °F 43.7 °F 99% 29.41 in 10.0 mi WNW 8.1 mph 21.9 mph N/A   Overcast
8:15 AM 43.7 °F 39.1 °F 43.7 °F 100% 29.42 in 4.0 mi WNW 8.1 mph - N/A   Overcast
8:35 AM 43.7 °F 38.6 °F 43.7 °F 100% 29.42 in 3.0 mi WNW 9.2 mph 24.2 mph N/A   Light Drizzle
8:55 AM 43.5 °F 37.9 °F 43.5 °F 100% 29.42 in 4.0 mi WNW 10.4 mph - N/A   Overcast
9:15 AM 43.7 °F 38.1 °F 43.7 °F 100% 29.41 in 7.0 mi WNW 10.4 mph 21.9 mph N/A   Overcast
9:35 AM 43.9 °F 37.5 °F 43.5 °F 99% 29.42 in 5.0 mi WNW 12.7 mph 18.4 mph N/A   Overcast
9:55 AM 44.2 °F 38.0 °F 43.3 °F 97% 29.42 in 10.0 mi WNW 12.7 mph 20.7 mph N/A   Overcast
10:15 AM 44.6 °F 37.8 °F 42.6 °F 93% 29.43 in 10.0 mi West 15.0 mph 24.2 mph N/A   Overcast
10:35 AM 44.2 °F 37.3 °F 42.6 °F 94% 29.43 in 10.0 mi WNW 15.0 mph 25.3 mph N/A   Overcast
10:55 AM 44.2 °F 37.6 °F 42.8 °F 95% 29.43 in 7.0 mi WNW 13.8 mph 20.7 mph N/A   Overcast
11:15 AM 44.4 °F 36.9 °F 42.4 °F 93% 29.43 in 10.0 mi WNW 17.3 mph 24.2 mph N/A   Overcast
11:55 AM 45.1 °F 38.8 °F 41.4 °F 87% 29.43 in 10.0 mi West 13.8 mph 25.3 mph N/A   Overcast
12:15 PM 45.1 °F 38.1 °F 41.2 °F 86% 29.44 in 10.0 mi WNW 16.1 mph 24.2 mph N/A   Overcast
12:35 PM 45.3 °F 38.7 °F 40.6 °F 84% 29.44 in 10.0 mi WNW 15.0 mph 24.2 mph N/A Rain Light Rain
12:55 PM 45.3 °F 39.7 °F 39.4 °F 80% 29.43 in 10.0 mi WNW 11.5 mph 29.9 mph N/A   Overcast
1:15 PM 45.7 °F 38.8 °F 38.1 °F 75% 29.43 in 10.0 mi WNW 16.1 mph 28.8 mph N/A   Overcast
1:35 PM 45.7 °F 39.1 °F 37.6 °F 73% 29.43 in 10.0 mi WNW 15.0 mph 26.5 mph N/A   Overcast
1:55 PM 45.7 °F 37.1 °F 37.4 °F 73% 29.43 in 10.0 mi WNW 24.2 mph 31.1 mph N/A   Overcast
2:15 PM 45.7 °F 40.2 °F 38.1 °F 75% 29.43 in 10.0 mi WNW 11.5 mph 25.3 mph N/A   Overcast
2:35 PM 45.7 °F 37.8 °F 39.6 °F 79% 29.43 in 7.0 mi West 20.7 mph 28.8 mph N/A   Light Drizzle
2:55 PM 45.0 °F 37.1 °F 41.2 °F 87% 29.44 in 10.0 mi WNW 19.6 mph 28.8 mph N/A   Light Drizzle
3:15 PM 44.6 °F 37.8 °F 40.5 °F 85% 29.44 in 10.0 mi WNW 15.0 mph 28.8 mph N/A   Overcast
3:35 PM 44.6 °F 36.9 °F 40.3 °F 85% 29.45 in 10.0 mi WNW 18.4 mph 26.5 mph N/A   Light Drizzle
3:55 PM 44.4 °F 38.6 °F 40.3 °F 85% 29.45 in 10.0 mi West 11.5 mph 33.4 mph N/A Rain Rain
4:15 PM 43.5 °F 35.5 °F 41.2 °F 91% 29.46 in 10.0 mi WNW 18.4 mph 27.6 mph N/A Rain Light Rain
4:35 PM 43.0 °F 35.7 °F 41.4 °F 94% 29.46 in 10.0 mi WNW 15.0 mph 32.2 mph 0.01 in Rain Light Rain
4:55 PM 43.0 °F 35.1 °F 41.0 °F 93% 29.47 in 10.0 mi West 17.3 mph 35.7 mph 0.01 in   Drizzle
5:15 PM 42.8 °F 34.3 °F 40.6 °F 92% 29.47 in 10.0 mi West 19.6 mph 33.4 mph N/A   Light Drizzle
5:35 PM 42.8 °F 34.0 °F 40.1 °F 90% 29.48 in 10.0 mi WNW 20.7 mph 33.4 mph N/A Rain Light Rain
5:55 PM 42.4 °F 34.1 °F 39.9 °F 91% 29.48 in 10.0 mi WNW 18.4 mph 26.5 mph N/A   Drizzle
6:15 PM 41.9 °F 34.3 °F 40.1 °F 93% 29.48 in 10.0 mi WNW 15.0 mph 29.9 mph N/A   Drizzle
6:35 PM 41.7 °F 32.3 °F 40.3 °F 95% 29.48 in 10.0 mi WNW 21.9 mph 31.1 mph N/A   Drizzle
6:55 PM 41.7 °F 33.1 °F 40.3 °F 95% 29.48 in 10.0 mi WNW 18.4 mph 29.9 mph N/A   Drizzle
7:15 PM 41.5 °F 33.5 °F 40.5 °F 96% 29.49 in 10.0 mi WNW 16.1 mph 24.2 mph N/A   Drizzle
7:35 PM 41.5 °F 32.9 °F 40.5 °F 96% 29.49 in 10.0 mi WNW 18.4 mph 28.8 mph N/A   Drizzle
7:55 PM 41.4 °F 31.4 °F 40.1 °F 95% 29.49 in 10.0 mi WNW 24.2 mph 33.4 mph N/A Rain Light Rain
8:15 PM 41.4 °F 32.7 °F 39.4 °F 93% 29.49 in 10.0 mi WNW 18.4 mph 29.9 mph N/A Rain Rain
8:35 PM 41.0 °F 32.5 °F 39.4 °F 94% 29.49 in 10.0 mi WNW 17.3 mph 25.3 mph N/A Rain Rain
8:55 PM 41.0 °F 32.2 °F 39.4 °F 94% 29.49 in 10.0 mi WNW 18.4 mph 28.8 mph 0.01 in   Light Drizzle
9:15 PM 41.0 °F 32.2 °F 39.0 °F 93% 29.49 in 10.0 mi WNW 18.4 mph 32.2 mph N/A   Light Drizzle
9:35 PM 40.8 °F 32.3 °F 39.0 °F 93% 29.49 in 10.0 mi WNW 17.3 mph 33.4 mph N/A   Drizzle
9:55 PM 41.0 °F 33.1 °F 39.0 °F 93% 29.49 in 10.0 mi WNW 15.0 mph 28.8 mph N/A   Drizzle
10:15 PM 41.0 °F 33.5 °F 38.3 °F 90% 29.49 in 10.0 mi WNW 13.8 mph 24.2 mph N/A   Drizzle
10:35 PM 41.2 °F 34.5 °F 37.8 °F 88% 29.49 in 10.0 mi NW 11.5 mph 19.6 mph N/A   Drizzle
10:55 PM 41.7 °F 34.4 °F 35.8 °F 79% 29.48 in 10.0 mi NW 13.8 mph 27.6 mph N/A   Overcast
11:15 PM 42.4 °F 35.0 °F 34.0 °F 72% 29.48 in 10.0 mi WNW 15.0 mph 28.8 mph N/A   Overcast
11:35 PM 42.8 °F 35.1 °F 33.3 °F 69% 29.48 in 10.0 mi NW 16.1 mph 33.4 mph N/A   Overcast
11:55 PM 43.0 °F 35.7 °F 33.1 °F 68% 29.48 in 10.0 mi NW 15.0 mph 25.3 mph N/A   Overcast